Location: Franzen
(48.6167°N, 15.3833°E)
Time: 20:38:32
(UTC+00:00)

Transit 2A - Pass Details

Date: 05 August 2021
Orbit: 594 x 964 km, 66.7° (Epoch: 27 September)

Event Time Altitude Azimuth Distance (km) Brightness Sun altitude
Rises 11:38:15 0° 327° (NNW) 3,189 9.0 57.5°
Reaches altitude 10° 11:40:40 10° 335° (NNW) 2,321 8.4 57.4°
Maximum altitude 11:45:44 41° 45° (NE) 1,188 7.2 57.1°
Drops below altitude 10° 11:51:16 10° 115° (ESE) 2,544 8.9 56.8°
Sets 11:54:02 0° 122° (ESE) 3,530 9.5 56.6°
